GW4062 Weather Reports


time (UTC)temp
F
wind
direction
speed
knots
gust
knots
rain 1hr
in
rain 24hr
in
rain mn
in
humidity
%
barometer
mb
20260503192525 64 29 0.9 2.6 0.00 0.00 0.00 62 1013.3
20260503191545 64 291 0.9 2.6 0.00 0.00 0.00 62 1013.4
20260503190525 64 349 0.9 3.5 0.00 0.00 0.00 61 1013.4
20260503185526 65 342 0.9 3.5 0.00 0.00 0.00 61 1013.4
20260503184526 65 352 0.9 2.6 0.00 0.00 0.00 61 1013.4
20260503183526 64 338 0.9 1.7 0.00 0.00 0.00 63 1013.4
20260503182526 63 326 0.9 2.6 0.00 0.00 0.00 63 1013.4
20260503181526 63 12 0.9 2.6 0.00 0.00 0.00 63 1013.4
20260503180526 63 340 0.9 2.6 0.00 0.00 0.00 64 1013.4
20260503175526 63 71 1.7 2.6 0.00 0.00 0.00 65 1013.4
20260503174526 62 346 1.7 3.5 0.00 0.00 0.00 66 1013.5
20260503173522 61 335 1.7 5.2 0.00 0.00 0.00 67 1013.3
20260503172526 60 342 0.9 2.6 0.00 0.00 0.00 69 1013.3
20260503171527 60 138 0.9 2.6 0.00 0.00 0.00 70 1013.4
20260503170527 59 329 0.9 2.6 0.00 0.00 0.00 73 1013.5
20260503150529 56 226 0.9 1.7 0.00 0.00 0.00 81 1012.9
20260503130550 54 331 0.9 0.9 0.00 0.00 0.00 83 1011.6
20260503110531 55 327 0.9 1.7 0.00 0.00 0.00 81 1011.6
20260503081520 55 320 0.9 0.9 0.00 0.00 0.00 78 1012.3
20260503080521 55 262 0.9 1.7 0.00 0.00 0.00 78 1012.3
20260503072521 56 327 0.9 1.7 0.00 0.00 0.00 78 1012.5
20260503071521 56 279 0.9 2.6 0.00 0.00 0.00 78 1012.4
20260503070521 56 338 0.9 1.7 0.00 0.00 0.00 78 1012.4
20260503054523 56 319 0.9 1.7 0.00 0.00 0.00 77 1012.7
20260503053523 56 335 1.7 1.7 0.00 0.00 0.00 77 1012.7
20260503052523 56 341 1.7 1.7 0.00 0.00 0.00 77 1012.8
20260503051523 56 347 0.9 2.6 0.00 0.00 0.00 78 1012.8
20260503050523 56 333 0.9 1.7 0.00 0.00 0.00 78 1012.8
20260503045523 56 289 0.9 1.7 0.00 0.00 0.00 78 1012.7
20260503044523 56 327 1.7 2.6 0.00 0.00 0.00 78 1012.7
20260503043523 56 316 0.9 1.7 0.00 0.00 0.00 77 1012.5
20260503042544 56 340 1.7 2.6 0.00 0.00 0.00 76 1012.5
20260503041524 56 318 0.9 1.7 0.00 0.00 0.00 76 1012.4
20260503040524 56 300 0.9 1.7 0.00 0.00 0.00 76 1012.4
20260503035524 56 311 1.7 2.6 0.00 0.00 0.00 76 1012.3
20260503034541 56 334 1.7 3.5 0.00 0.00 0.00 76 1012.3
20260503033544 56 338 0.9 2.6 0.00 0.00 0.00 76 1012.1
20260503032524 57 337 1.7 2.6 0.00 0.00 0.00 76 1012.1
20260503031525 57 327 1.7 4.3 0.00 0.00 0.00 76 1012.0
20260503030545 57 323 0.9 2.6 0.00 0.00 0.00 75 1011.8
20260503025542 57 340 1.7 4.3 0.00 0.00 0.00 75 1011.7
20260503024525 57 339 0.9 1.7 0.00 0.00 0.00 74 1011.5
20260503023525 57 345 1.7 4.3 0.00 0.00 0.00 73 1011.4
20260503022522 58 341 1.7 5.2 0.00 0.00 0.00 72 1011.5
20260503021525 59 332 1.7 3.5 0.00 0.00 0.00 71 1011.5
20260503020525 59 330 1.7 3.5 0.00 0.00 0.00 70 1011.4
20260503015525 59 331 1.7 4.3 0.00 0.00 0.00 70 1011.5
20260503014526 60 339 1.7 2.6 0.00 0.00 0.00 70 1011.5
20260503013526 60 338 1.7 2.6 0.00 0.00 0.00 69 1011.5
20260503012526 61 2 1.7 3.5 0.00 0.00 0.00 69 1011.5
20260503011526 62 333 1.7 3.5 0.00 0.00 0.00 67 1011.6
20260503010527 63 314 1.7 2.6 0.00 0.00 0.00 67 1011.5
20260503005526 63 337 1.7 3.5 0.00 0.00 0.00 67 1011.5
20260503004526 64 356 1.7 3.5 0.00 0.00 0.00 67 1011.5
20260503003526 65 351 1.7 3.5 0.00 0.00 0.00 65 1011.6
20260503002526 65 357 0.9 2.6 0.00 0.00 0.00 66 1011.6
20260503001527 66 359 0.9 3.5 0.00 0.00 0.00 64 1011.6
20260503000607 67 16 0.9 2.6 0.00 0.00 0.00 63 1011.7
20260502235527 66 308 1.7 3.5 0.00 0.00 0.00 64 1011.7
20260502234527 65 345 1.7 3.5 0.00 0.00 0.00 64 1011.8
20260502233527 65 358 1.7 3.5 0.00 0.00 0.00 65 1011.9
20260502232539 66 330 1.7 3.5 0.00 0.00 0.00 65 1011.9
20260502231528 65 292 0.9 1.7 0.00 0.00 0.00 65 1012.0
20260502230519 65 328 1.7 4.3 0.00 0.00 0.00 65 1012.2
20260502225528 65 285 1.7 2.6 0.00 0.00 0.00 66 1012.2
20260502224548 65 321 0.9 4.3 0.00 0.00 0.00 67 1012.4
20260502223519 65 339 1.7 4.3 0.00 0.00 0.00 66 1012.5
20260502222519 65 336 2.6 4.3 0.00 0.00 0.00 65 1012.6
20260502221548 65 338 0.9 2.6 0.00 0.00 0.00 65 1012.8
20260502220528 66 347 1.7 3.5 0.00 0.00 0.00 65 1013.0
20260502215528 66 342 0.9 2.6 0.00 0.00 0.00 64 1013.1
20260502214529 66 269 0.9 2.6 0.00 0.00 0.00 64 1013.1
20260502213528 66 330 0.9 2.6 0.00 0.00 0.00 65 1013.2
20260502212528 66 29 0.9 1.7 0.00 0.00 0.00 65 1013.2
20260502211528 66 5 0.9 4.3 0.00 0.00 0.00 65 1013.4
20260502210529 66 324 0.9 2.6 0.00 0.00 0.00 65 1013.5
20260502205529 66 345 1.7 3.5 0.00 0.00 0.00 65 1013.6
20260502204549 65 338 0.9 2.6 0.00 0.00 0.00 67 1013.7
20260502203529 65 16 0.9 1.7 0.00 0.00 0.00 67 1013.8
20260502202550 65 0 0.9 1.7 0.00 0.00 0.00 67 1014.0
20260502201529 65 298 0.9 3.5 0.00 0.00 0.00 67 1014.1
20260502200550 65 358 1.7 2.6 0.00 0.00 0.00 67 1014.2
20260502195610 64 185 0.9 1.7 0.00 0.00 0.00 69 1014.3
20260502194530 64 344 0.9 3.5 0.00 0.00 0.00 68 1014.4
20260502193530 64 2 0.9 4.3 0.00 0.00 0.00 68 1014.4